{"data":{"norad_id":48272,"epoch":"2026-09-20T23:26:24.982656Z","epoch_age_seconds":46440,"freshness":"FRESH","line1":"1 48272U 21034E   26263.97667804  .00003139  00000+0  21974-3 0  9990","line2":"2 48272  97.5210 318.9403 0006757 345.5453  14.5579 15.05952639294259","mean_motion":15.05952639,"eccentricity":0.0006757,"inclination_deg":97.521,"raan_deg":318.9403,"arg_perigee_deg":345.5453,"mean_anomaly_deg":14.5579,"bstar":0.00021974,"rev_number":29425,"period_min":95.620536974935,"perigee_km":543.9026096772,"apogee_km":553.26337907761,"semimajor_km":6926.7199943774,"source":"CELESTRAK","updated_at":"2026-09-21T09:00:07.706453Z"}}